Regional Weather Roundup
Issued by NWS

Home | Current Version | Previous Version | Graphics & Text | Print | Product List | Glossary Off
Versions: 1 2 3 4 5 6 7 8 9 10 11 12 13 14 15 16 17 18 19 20 21 22 23 24 25 26 27 28 29 30 31 32 33 34 35 36 37 38 39 40 41 42 43 44 45 46 47 48 49 50

030
ASUS43 KMPX 201001
RWRMN
WEATHER ROUNDUP FOR MINNESOTA
NATIONAL WEATHER SERVICE TWIN CITIES/CHANHASSEN MN
500 AM CDT FRI OCT 20 2017


NOTE: "FAIR" INDICATES FEW OR NO CLOUDS BELOW 12,000 FEET WITH NO
SIGNIFICANT WEATHER AND/OR OBSTRUCTIONS TO VISIBILITY. N/A MEANS
CURRENT SKY AND/OR WEATHER CONDITIONS ARE NOT AVAILABLE.

MNZ060>063-068>070-201100-
   Twin Cities Metro

CITY           SKY/WX    TMP DP  RH WIND       PRES   REMARKS
TWIN CITIES    FAIR      53  50  89 SE7       29.89F
ST PAUL        FAIR      52  49  89 SE8       29.91F
CRYSTAL        FAIR      51  46  83 SE6       29.87F
BLAINE         FAIR      54  50  87 SE6       29.88S
LAKEVILLE      FAIR      52  48  87 S3        29.91S
EDEN PRAIRIE   FAIR      58  50  75 S9        29.88S
SOUTH ST PAUL  FAIR      50  49  95 CALM      29.90F
LAKE ELMO      FAIR      54  50  87 S7        29.92S
$$
MNZ001>005-007-008-013>017-022>024-027-028-201100-
   Northwest Minnesota

CITY           SKY/WX    TMP DP  RH WIND       PRES   REMARKS
BEMIDJI        FAIR      52  44  75 SE3       29.74S
HALLOCK        FAIR      46  43  87 SE9       29.63S
ROSEAU         FAIR      50  45  81 S9        29.67F
WARROAD        FAIR      48  43  81 S7        29.68F
CROOKSTON      FAIR      54  46  76 S10       29.65F
FOSSTON        FAIR      55  45  67 S8        29.69F
DETROIT LAKES  FAIR      52  46  82 SE9       29.73S
MOORHEAD       FAIR      55  48  76 SE15      29.67F
PARK RAPIDS    FAIR      48  43  82 SE8       29.75F
MAHNOMEN       FAIR      58  48  69 S9        29.69F
$$
MNZ006-009>011-018-025>026-201100-
   North Central Minnesota

CITY           SKY/WX    TMP DP  RH WIND       PRES   REMARKS
BAUDETTE       FAIR      49  41  74 S9        29.71F
FLAG ISLAND    FAIR      52  43  71 SE6       29.68S
INTL FALLS     FAIR      43  36  76 SE6       29.76F
WASKISH        FAIR      54  45  71 SE5       29.73F
BIG FORK       FAIR      52  41  66 SE3       29.79S
LONGVILLE      FAIR      48  45  87 SE3       29.78F
GRAND RAPIDS   FAIR      52  43  71 SE6       29.82S
CRANE LAKE     FAIR      48  39  71 S6        29.82S
ORR            FAIR      48  37  66 SE5       29.78S
COOK           FAIR      54  41  62 S3        29.82S
WALKER         FAIR      53  45  75 SE3       29.76S
$$
MNZ012-019>021-037-201100-
   Northeast Minnesota

CITY           SKY/WX    TMP DP  RH WIND       PRES   REMARKS
DULUTH         FAIR      52  44  74 S7        29.86S
ELY            FAIR      45  37  76 SE6       29.84S
HIBBING        FAIR      34  32  92 CALM      29.84S
EVELETH        FAIR      38  37  97 CALM      29.86S
DULUTH HARBOR  FAIR      52  46  82 CALM      29.87S
TWO HARBORS    FAIR      43  37  81 CALM      29.85S
SILVER BAY     FAIR      36  34  93 CALM      29.86S
GRAND MARAIS     N/A     42  39  89 CALM      29.88S
G MARAIS ARPRT FAIR      39  30  70 CALM      29.90S
$$
MNZ029>031-032-039>041-046>048-054>057-064-201100-
   West Central Minnesota

CITY           SKY/WX    TMP DP  RH WIND       PRES   REMARKS
FERGUS FALLS   FAIR      55  48  76 SE14      29.73S
WHEATON        FAIR      54  46  76 SE13      29.72F
MORRIS         FAIR      52  48  87 SE10      29.75S
ALEXANDRIA     FAIR      56  49  77 S10       29.79F
ELBOW LAKE     FAIR      54  49  85 E12       29.74F
WADENA         FAIR      52  46  82 S7        29.76S
GLENWOOD       FAIR      54  48  82 S7        29.80S
APPLETON       FAIR      55  48  76 SE7       29.76S
BENSON         FAIR      54  48  82 S9        29.79F
ORTONVILLE     FAIR      52  46  82 NE7       29.74F
MADISON        FAIR      64  50  59 S9        29.76S
WILLMAR        FAIR      54  50  87 SE7       29.83S
$$
MNZ033>034-036-042>043-049>051-058-059-201100-
   Central Minnesota

CITY           SKY/WX    TMP DP  RH WIND       PRES   REMARKS
ST CLOUD       FAIR      49  48  97 SE8       29.84F
SAUK CENTRE    FAIR      50  47  89 SE7       29.81S
PAYNESVILLE    FAIR      54  50  86 S10       29.82F
AITKIN         FAIR      52  45  76 S8        29.80F
PINE RIVER     FAIR      46  43  87 S5        29.83S
BRAINERD       FAIR      53  47  79 S9        29.81F
STAPLES        FAIR      52  46  82 S7        29.78S
LONG PRAIRIE   FAIR      50  46  87 SE9       29.80F
LITTLE FALLS   FAIR      50  43  76 SE7       29.82F
LITCHFIELD     FAIR      55  52  88 S3        29.84F
BUFFALO        FAIR      57  49  76 S5        29.87S
MAPLE LAKE     FAIR      55  51  88 S5        29.86F
HUTCHINSON     FAIR      55  51  87 S5        29.86F
$$
MNZ037-044-045-052-053-201100-
   East Central Minnesota

CITY           SKY/WX    TMP DP  RH WIND       PRES   REMARKS
PRINCETON      FAIR      48  46  93 SE3       29.86S
MORA           FAIR      39  36  87 CALM      29.88S
CAMBRIDGE      FAIR      55  45  67 SE7       29.87S
RUSH CITY      MOCLDY    52  46  79 S7        29.88S
MOOSE LAKE     FAIR      50  43  76 S3        29.84S
HINCKLEY       FAIR      46  43  87 S3        29.87F
CLOQUET        FAIR      52  41  66 S3        29.86S
MCGREGOR       FAIR      50  43  76 S6        29.84S
$$
MNZ071>073-080-081-089-090-097-098-201100-
   Southwest Minnesota

CITY           SKY/WX    TMP DP  RH WIND       PRES   REMARKS
MONTEVIDEO     FAIR      55  48  76 SW8       29.78F
GRANITE FALLS  FAIR      57  50  77 SE10      29.82S
CANBY          FAIR      64  48  56 SW15G24   29.77F
MARSHALL       FAIR      60  49  66 S17       29.80F
REDWOOD FALLS  FAIR      58  48  69 S10       29.83F
OLIVIA         FAIR      54  50  87 S9        29.82F
PIPESTONE      FAIR      55  46  71 S12       29.83F
WORTHINGTON    FAIR      58  48  69 S15       29.89F
JACKSON        FAIR      54  46  76 S9        29.91S
TRACY          FAIR      62  50  66 S16G24    29.83S
SLAYTON        FAIR      57  48  72 S12       29.86F
$$
MNZ065>067-074>077-082>085-091>093-201100-
   South Central Minnesota

CITY           SKY/WX    TMP DP  RH WIND       PRES   REMARKS
MANKATO        FAIR      54  49  83 S9        29.91S
NEW ULM        FAIR      52  48  87 S8        29.87S
ST JAMES       FAIR      54  48  82 S7        29.89F
FAIRMONT       FAIR      55  50  83 S13       29.92S
GLENCOE        FAIR      57  51  78 S7        29.86F
FARIBAULT      FAIR      54  48  82 S8        29.93S
OWATONNA       FAIR      55  50  82 S13       29.94S
WASECA         FAIR      55  50  82 S9        29.94S
$$
MNZ078>079-086>088-094>096-201100-
   Southeast Minnesota

CITY           SKY/WX    TMP DP  RH WIND       PRES   REMARKS
ROCHESTER      FAIR      53  49  86 S10       29.98S
RED WING       FAIR      54  46  76 E3        29.93S
STANTON        FAIR      58  50  75 S10G16    29.91S
DODGE CENTER   FAIR      55  48  76 S14       29.96S
WINONA         FAIR      55  50  82 SE5       29.99S
AUSTIN         FAIR      54  48  82 S6        29.98S
PRESTON        FAIR      54  48  80 S10       30.00S
$$
ABBREVIATIONS USED IN REMARKS
   TC - TEMPERATURES IN CELSIUS
  WCI - WIND CHILL INDEX
   HX - HEAT INDEX
  VSB - VISIBILITY
$$




USA.gov is the U.S. government's official web portal to all federal, state and local government web resources and services.